Theta_e
318 318 319 319 317 319 320 317 318 318 320 320 319 319 318 318 318 318 319 334 335 336 336 337 337 339 339 337 337 339 341 343 344 345 345 346 346 344 345 346 348 348 348
317 318 319 317 317 318 316 315 316 317 317 318 319 318 317 319 317 317 320 322 337 335 333 334 335 338 335 335 336 336 338 339 340 343 344 343 344 343 343 343 346 347 347
318 318 318 318 317 319 315 315 315 316 317 318 316 315 317 320 319 319 322 324 328 333 331 330 330 333 333 332 332 332 334 335 334 337 338 339 341 341 342 343 344 346 347
320 317 317 316 317 317 315 312 312 313 314 314 313 313 314 318 319 319 319 324 324 326 328 329 327 327 328 327 329 329 330 333 333 334 338 336 336 339 341 341 341 341 345
321 316 316 315 316 316 314 313 312 311 311 312 312 313 313 316 317 320 318 321 322 324 323 326 326 323 324 327 324 326 325 327 326 331 334 335 335 336 337 337 337 338 342
320 316 316 314 315 314 313 311 310 312 310 311 313 312 310 315 317 317 318 321 321 321 321 322 320 319 324 325 325 326 326 325 326 333 333 334 333 333 333 334 334 335 337
319 316 315 313 314 312 310 311 310 309 307 310 307 309 309 314 313 318 318 316 317 319 321 320 320 320 319 324 325 326 328 326 326 327 329 327 330 330 331 330 330 331 332
317 317 315 313 314 311 310 309 308 306 305 307 304 303 300 305 311 311 315 315 315 317 319 320 319 319 319 319 323 325 325 326 325 327 325 326 324 326 329 328 329 329 329
318 317 315 315 313 311 309 308 308 307 304 307 307 308 305 299 305 307 310 313 313 313 314 317 318 319 318 318 323 323 324 323 324 324 323 323 326 325 324 326 328 329 328
317 318 316 315 313 311 309 308 311 309 307 303 305 309 311 310 306 301 306 309 312 313 312 314 315 317 317 317 321 323 324 323 322 323 323 322 323 324 326 321 326 328 328
317 318 316 314 312 311 310 309 310 307 307 306 304 305 309 307 310 303 299 304 308 310 313 313 313 313 317 318 319 321 323 322 322 322 323 323 323 323 323 326 323 326 326
315 315 316 314 313 311 311 311 311 309 307 308 307 306 305 308 307 307 302 302 303 307 311 312 312 312 314 317 322 322 320 319 318 317 317 319 320 319 320 321 322 322 323
314 313 314 313 313 313 315 313 311 310 308 307 307 307 306 305 309 310 307 302 301 305 308 310 312 312 316 315 318 321 321 318 316 315 315 315 316 317 318 318 319 319 319
314 315 315 314 314 314 311 313 312 310 311 309 308 307 307 306 305 307 309 307 300 300 304 306 310 311 312 314 318 320 316 319 316 315 315 315 316 316 316 316 317 316 316
318 315 319 315 314 315 315 316 314 313 313 311 311 307 307 307 306 306 307 310 307 299 298 306 308 314 313 312 315 312 313 320 318 316 315 315 315 315 316 316 316 315 315
316 317 317 316 315 316 316 315 315 313 312 312 313 308 308 306 307 308 306 305 307 308 299 303 305 309 311 315 315 311 313 319 320 318 316 315 315 315 314 315 315 314 314
318 317 320 317 317 316 314 313 312 313 314 310 310 311 312 308 307 307 307 305 305 304 300 303 307 308 308 308 311 310 312 311 311 319 320 317 315 315 315 314 314 313 313
317 318 317 318 317 315 315 315 314 315 312 311 311 310 310 313 307 307 306 305 304 305 303 300 303 305 306 308 309 308 311 314 311 317 319 318 316 314 314 313 313 313 312
317 318 318 317 316 317 316 314 314 314 314 312 312 311 311 312 310 308 307 305 305 307 303 302 302 304 307 309 306 307 308 308 311 318 318 318 316 315 314 313 312 311 310
317 317 318 318 318 318 318 317 316 314 314 314 313 313 313 312 311 310 308 305 305 304 303 301 300 301 302 304 304 303 303 303 305 310 314 315 315 316 315 313 313 312 310
318 318 318 318 319 319 320 317 316 315 314 313 314 314 314 315 319 315 311 305 303 304 303 302 301 299 300 300 300 301 300 301 303 304 304 305 308 308 308 313 313 314 312
317 318 319 319 318 320 316 314 315 312 313 314 314 314 315 318 318 317 316 313 308 304 303 302 301 300 300 301 302 301 301 300 298 303 302 303 305 305 309 305 310 310 307
317 319 320 320 320 320 313 311 313 314 312 314 314 315 316 319 316 315 313 313 312 311 310 305 303 304 303 305 304 301 301 300 300 305 303 302 303 304 308 305 307 306 305
318 319 319 320 320 323 313 310 311 316 315 316 317 318 317 316 315 315 315 313 310 311 310 310 308 308 309 312 307 306 304 303 304 303 305 302 302 302 302 301 306 305 304
319 320 320 320 319 322 313 309 311 316 318 318 319 320 319 317 313 309 314 312 312 313 314 310 309 307 306 307 309 304 303 299 298 301 304 305 302 298 300 299 301 307 305
320 321 320 320 319 321 313 309 310 318 312 314 318 319 313 315 310 305 312 310 308 311 312 311 310 308 306 306 306 306 309 303 299 299 302 299 298 297 296 298 300 305 304
Wind_Speed
5 5 6 4 5 5 6 5 7 8 10 12 9 6 6 6 5 3 2 7 1 4 7 10 12 11 11 7 8 10 7 8 9 8 7 7 8 8 6 5 4 7 9
4 4 5 4 5 4 4 5 7 7 8 9 11 8 7 8 4 3 3 4 0 6 5 10 14 8 4 4 8 6 10 6 7 8 8 7 6 6 7 6 5 7 6
6 6 4 5 5 4 5 6 7 8 8 9 10 8 8 12 5 4 4 4 5 5 4 7 8 6 5 8 5 4 7 8 2 5 7 8 8 7 6 6 6 8 7
7 6 4 5 6 4 4 5 5 7 7 6 7 7 6 10 4 6 5 4 3 3 5 5 8 4 3 5 6 6 9 8 12 11 7 8 10 10 10 7 4 3 9
6 5 4 5 6 4 5 5 4 3 6 7 7 6 7 5 5 6 7 4 4 4 2 3 5 1 5 8 2 4 4 7 10 15 11 10 11 11 13 10 7 6 5
6 5 5 5 5 4 5 4 5 6 5 7 8 7 4 3 5 6 6 5 5 6 4 4 3 2 5 8 7 6 8 5 10 11 12 11 12 10 12 10 9 8 8
5 5 3 5 5 4 3 5 4 5 5 8 5 8 4 4 11 5 4 5 5 5 5 3 2 2 2 5 4 5 8 9 2 9 13 7 7 10 10 9 8 8 7
4 4 3 3 4 4 6 5 5 3 3 4 3 2 5 6 9 6 4 4 5 4 4 4 3 3 3 3 4 2 3 7 5 7 10 11 9 11 6 6 7 7 7
5 5 5 4 5 4 2 3 4 5 3 4 6 3 3 2 6 4 6 5 6 3 4 4 1 2 3 3 4 1 8 9 4 6 4 2 9 6 8 8 3 7 6
5 5 5 5 5 2 3 2 3 2 3 3 5 3 1 3 3 6 4 5 6 5 4 2 1 2 2 2 2 5 7 8 3 3 4 2 2 5 8 5 7 4 6
6 4 5 4 3 1 1 1 3 3 1 1 1 3 3 2 2 2 5 7 4 5 4 3 2 1 3 3 2 4 5 5 4 3 6 6 4 2 3 8 3 6 3
2 3 4 3 1 2 2 1 2 2 1 2 2 2 1 2 3 2 3 4 4 6 5 3 1 2 2 4 7 7 5 4 5 3 2 4 3 2 1 3 3 1 2
2 2 3 2 1 1 2 2 2 4 3 2 3 3 1 3 2 2 2 3 3 4 3 2 2 1 1 3 4 9 9 5 4 4 3 2 2 2 1 0 2 1 2
1 3 3 3 2 2 0 1 1 2 4 3 6 4 3 4 2 2 2 1 4 3 3 4 2 2 3 3 5 7 5 11 8 6 5 6 6 4 3 2 3 3 3
2 1 3 4 4 5 5 4 3 4 4 4 5 5 4 4 3 3 2 2 3 3 3 4 3 3 2 3 6 3 5 10 11 10 7 8 8 7 6 6 7 6 5
3 3 5 5 5 6 5 6 5 5 5 4 4 4 5 3 5 3 3 2 1 2 3 2 3 3 3 2 7 5 6 11 12 10 11 12 10 9 9 9 8 8 8
5 5 5 6 6 6 5 6 7 7 6 5 6 6 6 5 4 4 3 2 2 2 3 4 3 3 3 4 4 4 4 5 5 12 14 14 13 12 12 12 12 12 12
6 6 6 6 6 6 7 6 8 7 7 6 7 6 7 4 6 5 3 4 3 2 4 5 3 3 4 6 5 5 5 5 5 10 13 13 15 15 16 14 13 13 13
5 6 6 7 7 7 7 7 7 7 8 7 7 7 7 6 6 5 5 5 3 3 2 3 4 3 4 3 4 4 4 6 4 11 12 15 16 16 16 16 16 14 14
6 7 7 7 7 8 8 8 7 7 7 7 8 7 7 7 8 7 6 7 5 4 3 3 3 3 2 4 2 3 4 2 4 4 7 9 13 18 17 17 16 16 15
6 7 7 7 7 8 7 8 8 8 8 8 8 8 8 10 14 11 6 7 6 4 4 4 4 2 2 2 2 2 3 3 4 4 3 3 4 6 6 15 15 18 14
7 7 8 8 8 8 11 13 10 7 8 9 10 9 9 12 13 14 15 15 11 7 6 4 4 5 5 3 2 2 2 2 3 2 2 6 4 4 6 4 10 11 8
8 8 9 8 10 11 12 15 17 9 9 10 11 10 9 9 10 8 10 15 14 16 15 7 7 7 6 6 4 3 3 3 4 6 1 6 3 4 4 4 8 7 10
8 7 8 9 9 11 12 16 19 11 7 13 11 12 12 10 9 10 9 9 10 11 12 10 11 12 10 10 8 6 6 4 4 5 3 4 1 3 2 3 8 8 10
6 7 6 8 7 13 13 15 13 7 10 12 10 8 6 9 18 18 11 9 8 9 10 17 16 17 14 15 8 4 4 2 4 4 3 4 2 2 1 2 4 9 8
7 5 6 5 10 11 15 15 9 7 8 7 11 10 11 12 20 19 9 7 7 9 5 5 5 7 10 8 13 9 7 6 3 3 4 3 1 2 4 2 2 3 3
Wind_Direction
8 356 345 348 356 356 350 1 5 353 348 337 324 331 321 315 282 284 305 323 190 73 7 354 344 314 275 289 267 270 233 223 224 229 228 219 220 220 214 218 235 213 231
17 359 343 5 357 5 359 9 2 351 337 338 335 334 333 320 267 295 24 19 274 89 43 16 359 13 43 303 277 285 315 224 225 227 222 205 208 199 213 213 207 202 222
20 6 351 12 353 24 1 20 2 355 346 336 340 337 341 326 331 38 61 63 50 70 36 38 45 22 348 69 71 70 358 315 285 216 207 198 197 190 168 203 203 195 190
29 11 10 8 351 42 23 13 359 350 337 332 329 334 330 337 52 48 33 54 42 56 42 24 46 43 347 47 60 64 43 13 338 310 210 189 189 189 154 142 160 213 184
40 25 24 11 6 28 18 10 347 356 341 343 329 332 333 342 17 30 26 36 46 68 39 42 67 184 274 259 297 339 24 23 349 299 268 198 174 160 136 131 128 104 165
54 35 30 15 23 34 7 3 3 355 353 345 329 323 314 308 38 28 10 9 27 36 23 28 342 250 271 281 267 279 261 281 335 248 231 200 162 145 126 129 127 115 105
59 48 50 13 11 64 6 21 337 358 351 345 345 344 351 45 32 357 3 6 0 11 8 5 7 272 270 261 234 264 271 241 158 69 21 79 114 127 121 125 127 120 109
91 73 76 17 31 55 17 19 23 348 328 354 13 333 353 335 1 337 348 351 348 340 343 343 7 13 317 239 214 155 44 57 40 82 93 310 61 44 54 135 131 123 113
103 89 61 48 44 75 32 5 6 33 353 324 5 62 338 331 323 330 346 333 330 329 320 315 72 51 25 1 226 163 63 350 37 83 86 326 21 21 357 348 201 154 135
95 92 74 63 59 104 39 5 10 344 22 350 332 354 168 262 316 330 324 326 327 323 311 311 71 147 135 118 102 135 163 186 265 175 179 111 219 295 211 286 320 194 161
107 102 98 75 51 104 319 30 345 330 25 303 304 320 331 319 311 280 304 329 320 311 308 251 245 234 176 145 110 132 134 143 114 57 125 155 144 277 217 170 252 292 187
160 126 104 86 93 10 12 272 286 287 319 305 280 293 270 302 313 314 298 303 293 303 308 284 278 232 195 185 185 162 181 166 145 174 231 114 114 98 50 101 132 240 293
241 158 127 133 273 257 68 38 327 250 280 298 284 280 276 260 231 260 262 290 296 295 312 319 285 255 203 183 202 176 190 194 181 229 225 241 212 167 170 168 130 117 331
242 201 168 173 244 197 179 326 282 269 274 277 283 264 262 275 261 232 235 274 322 305 323 274 289 285 199 207 209 215 210 195 196 226 206 228 216 220 224 227 256 249 261
263 301 316 217 231 248 247 203 251 275 262 264 270 267 256 272 270 295 261 224 178 302 300 297 289 285 229 215 237 202 213 208 210 218 214 238 237 229 231 239 254 260 257
242 269 283 288 238 254 235 223 241 263 262 265 266 277 260 264 282 281 282 277 196 220 267 251 280 274 263 235 241 191 213 218 227 227 223 229 230 231 228 231 233 250 253
237 249 262 268 274 263 265 233 245 252 252 251 268 262 270 262 270 287 298 298 296 195 216 291 250 268 268 250 248 249 220 223 240 244 234 218 217 226 228 225 229 234 246
240 232 251 261 269 272 274 247 246 255 251 260 260 258 262 271 267 263 248 288 253 261 191 264 269 278 243 236 228 223 239 235 230 246 245 212 219 216 224 227 228 230 235
247 245 242 249 255 259 262 263 251 254 253 242 247 244 245 250 258 253 240 242 251 272 242 216 271 258 261 276 258 269 252 251 254 256 246 220 222 228 227 226 229 228 229
251 253 254 247 246 250 254 259 255 258 252 239 239 238 243 239 235 239 232 229 234 253 281 283 284 279 235 276 256 239 290 285 269 253 252 219 222 235 237 234 234 232 232
249 253 260 259 255 254 256 248 247 246 242 249 246 240 237 234 236 224 214 225 211 219 244 262 282 288 276 311 264 263 245 268 279 230 266 258 228 241 242 242 241 239 237
252 255 256 253 255 259 256 257 257 253 251 250 255 246 241 247 256 247 232 218 199 203 222 207 232 241 256 239 252 242 258 323 311 267 103 288 186 234 240 225 222 221 232
242 244 250 252 263 267 265 268 267 262 258 256 248 253 252 241 239 239 237 222 222 216 218 207 225 229 241 230 205 251 255 238 240 271 195 278 200 249 220 203 200 216 239
246 251 261 260 263 274 263 262 263 276 284 276 273 270 265 278 263 241 238 222 223 224 221 222 224 240 232 248 201 198 214 231 270 273 233 238 291 252 182 209 220 237 238
256 254 253 272 278 283 280 282 297 271 263 272 274 265 265 283 285 260 239 240 231 231 217 213 215 228 235 240 209 152 234 206 275 269 277 197 276 296 241 265 258 243 250
269 283 286 296 287 283 289 286 262 272 271 273 282 233 234 220 251 277 233 223 230 241 220 243 245 228 245 248 213 202 228 233 204 313 268 138 206 139 331 297 295 278 261